Printer-friendly version
Follow the MPC on Twitter Follow the MPC on Facebook The MPC blog
Minor Planet Center

MPEC 2010-C39 : 2010 CM1

The following Minor Planet Electronic Circular may be linked-to from your own Web pages, but must not otherwise be redistributed electronically.

A form allowing access to any MPEC is at the bottom of this page.


Read MPEC 2010-C38 Read MPEC 2010-C40


M.P.E.C. 2010-C39                                Issued 2010 Feb. 10, 15:05 UT

     The Minor Planet Electronic Circulars contain information on unusual
         minor planets and routine data on comets.  They are published
   on behalf of Commission 20 of the International Astronomical Union by the
          Minor Planet Center, Smithsonian Astrophysical Observatory,
                          Cambridge, MA 02138, U.S.A.

             Prepared using the Tamkin Foundation Computer Network

                              MPC@CFA.HARVARD.EDU
          URL http://www.cfa.harvard.edu/iau/mpc.html  ISSN 1523-6714

                                   2010 CM1

Observations:
     K10C01M* C2010 02 09.28187 09 14 55.50 +15 14 15.1          21.6 V EC039G96
     K10C01M  C2010 02 09.29163 09 14 57.51 +15 14 33.4          21.3 V EC039G96
     K10C01M  C2010 02 09.30135 09 14 59.49 +15 14 51.5          21.2 V EC039G96
     K10C01M  C2010 02 09.31102 09 15 01.47 +15 15 09.7          21.2 V EC039G96
     K10C01M tC2010 02 10.35764 09 18 51.10 +15 46 18.3          21.9 V EC039291
     K10C01M tC2010 02 10.36170 09 18 51.80 +15 46 24.8          21.2 V EC039291
     K10C01M tC2010 02 10.36718 09 18 52.90 +15 46 33.6          22.1 V EC039291

Observer details:
291 LPL/Spacewatch II.  Observer J. V. Scotti.  1.8-m f/2.7 reflector + CCD.
G96 Mt. Lemmon Survey.  Observers R. A. Kowalski, G. M Hupe.  Measurers
    J. D. Ahern, E. C. Beshore, A. Boattini, G. J. Garradd, A. R. Gibbs,
    A. D. Grauer, R. E. Hill, R. A. Kowalski, S. M. Larson, R. H. McNaught.
    1.5-m reflector + CCD.

Orbital elements:
2010 CM1                                                 Earth MOID = 0.0455 AU
Epoch 2010 Jan. 4.0 TT = JDT 2455200.5                  MPC
M   2.58798              (2000.0)            P               Q
n   0.33551298     Peri.  308.28285     +0.01479387     -0.99830760
a   2.0511456      Node   140.75681     +0.94290369     -0.00478899
e   0.5254202      Incl.    5.10050     +0.33273680     +0.05795690
P   2.94           H   25.3           G   0.15           U   9
Residuals in seconds of arc
100209 G96  0.0   0.2+    100209 G96  0.0   0.1-    100210 291  0.3+  0.3-
100209 G96  0.1+  0.0     100210 291  0.3+  0.3+
100209 G96  0.1-  0.2-    100210 291  0.6-  0.0

Ephemeris:
2010 CM1                 a,e,i = 2.05, 0.53, 5                   q = 0.9734
Date    TT    R. A. (2000) Decl.     Delta      r     Elong.  Phase     V
2010 02 03    08 43.14   +10 42.3    0.0954   1.080   172.0     7.3    20.9
2010 02 08    09 09.73   +14 31.8    0.121    1.107   176.1     3.4    21.3
2010 02 13    09 27.31   +16 52.8    0.150    1.136   174.5     4.8    21.9
2010 02 18    09 39.57   +18 20.9    0.181    1.167   171.1     7.6    22.5
2010 02 23    09 48.63   +19 15.0    0.215    1.200   167.4    10.4    23.0

Sonia Keys                   (C) Copyright 2010 MPC           M.P.E.C. 2010-C39

Read MPEC 2010-C38 Read MPEC 2010-C40


MPEC number:

Enter an MPEC number in one of the following forms:

  • 1997-B01 (the full form)
  • J97B01 (the packed version of the full form)
  • B01 (the abbreviated form)

Valid HTML 4.01!